[[{"header":{"parameterUnit":"m.s-1","parameterCategory":1,"la1":30.2991,"la2":30.254,"lo1":-89.0895,"lo2":-89.0444,"dy":0.0017,"dx":0.0017,"nx":28,"ny":28,"refTime":"2025-07-17T09:00:00:Z","depth":0,"parameterNumber":2,"parameterNumberName":"U-component_of_WINDS"},"data":[0,0,0,0,0,0,0,0,0,0,0,0,0,0,0,0,0,0,0,0,0,0,0,0,0,0,0,0,0,0,0,0,0,0,0,0,0,0,0,0,0,0,0,0,0,0,0,0,0,0,0,0,0,0,0,0,0,0,0.458,0.4579,0,0.4537,0.4537,0.4536,0.4471,0.4469,0.4468,0.4467,0.4425,0.4425,0.4425,0,0,0,0,0,0,0,0,0,0,0,0,0,0.4606,0.4606,0.458,0.4579,0.4579,0.4537,0.4537,0.4536,0.4471,0.4469,0.4468,0.4467,0.4425,0.4425,0.4425,0,0,0,0,0,0,0,0,0,0,0,0,0,0.4583,0.4606,0.458,0.4541,0.4537,0.4537,0.4537,0.4536,0.4471,0.4469,0.4468,0.4466,0.4425,0.4425,0.4425,0.446,0,0,0.4425,0.4425,0,0,0,0,0,0,0,0,0.4584,0.4582,0.4547,0.4544,0.454,0.4507,0.453,0.451,0.4472,0.4496,0.4467,0.4465,0.4454,0.4451,0.4447,0.4458,0.4456,0.4425,0.4425,0.4425,0.4425,0,0,0,0,0,0,0,0.4586,0.4583,0.4563,0.4547,0.4542,0.4526,0.4521,0.4526,0.4486,0.4494,0.4489,0.4485,0.4451,0.4448,0.4446,0.4455,0.4425,0.4425,0.4425,0.4425,0.4492,0.4493,0,0,0,0,0,0,0.4593,0.4585,0.4564,0.4562,0.4558,0.4527,0.4521,0.452,0.4485,0.4478,0.4486,0.4482,0.4448,0.4446,0.4444,0.4482,0.4425,0.4425,0.4425,0.449,0.4492,0.4494,0,0,0,0,0,0,0.4594,0.4592,0.4566,0.4572,0.4567,0.4529,0.4527,0.452,0.4515,0.448,0.4472,0.449,0.4447,0.4444,0.4456,0.4479,0.4425,0.4425,0.4488,0.449,0.4493,0.4558,0,0,0,0,0,0,0.4595,0.4592,0.4605,0.4573,0.4567,0.4579,0.4529,0.452,0.4515,0.4509,0.4481,0.4474,0.4445,0.4456,0.4456,0.4478,0.4425,0.4485,0.4489,0.4492,0.4554,0.4563,0.4571,0,0,0,0,0,0.4596,0.4625,0.4606,0.4604,0.4582,0.458,0.4577,0.4543,0.4518,0.453,0.4507,0.4475,0.4477,0.4458,0.4457,0.448,0.4484,0.4488,0.4492,0.455,0.4561,0.457,0,0,0,0,0,0,0.4662,0.4621,0.4598,0.4618,0.4603,0.4569,0.4583,0.4556,0.4548,0.4542,0.45,0.4494,0.4512,0.4497,0.4477,0.4511,0.4476,0.448,0.452,0.453,0.4539,0.4541,0.4425,0,0,0,0,0,0.4679,0.468,0.4644,0.4665,0.4659,0.4623,0.462,0.4595,0.4578,0.4571,0.4549,0.4534,0.4531,0.453,0.4525,0.4552,0.4544,0.4567,0.4575,0.4582,0.4586,0.4598,0.4607,0.4507,0.4507,0.4507,0,0,0.4714,0.4691,0.4695,0.4678,0.4663,0.4666,0.4618,0.4622,0.4624,0.4572,0.4582,0.4565,0.4545,0.4564,0.4572,0.4553,0.4612,0.4587,0.4593,0.4593,0.4603,0.4613,0.4621,0.451,0.4509,0.4509,0,0,0.4778,0.4762,0.4777,0.4763,0.4741,0.4717,0.4721,0.4691,0.4678,0.4686,0.4647,0.4649,0.4645,0.4632,0.4625,0.4685,0.4656,0.4685,0.4729,0.4741,0.4749,0.4755,0.4776,0.4784,0.4689,0.4689,0.4689,0,0.4825,0.4826,0.4789,0.4795,0.4789,0.4742,0.4757,0.4746,0.4724,0.4721,0.47,0.4693,0.4677,0.4692,0.4707,0.4703,0.4706,0.4688,0.4751,0.4757,0.4763,0.4782,0.479,0.4693,0.4692,0.4692,0.4692,0,0.4884,0.4886,0.4901,0.488,0.4875,0.4887,0.4851,0.4851,0.4826,0.4805,0.4814,0.4793,0.4782,0.4784,0.4761,0.4796,0.4785,0.4758,0.4721,0.4777,0.4794,0.4801,0.4698,0.4697,0.4696,0.4695,0,0,0.4988,0.4946,0.4952,0.4942,0.4914,0.4915,0.4925,0.4914,0.4915,0.4901,0.4908,0.4905,0.488,0.4872,0.4847,0.4858,0.4906,0.4829,0.4828,0.4844,0.4943,0.4963,0.4972,0.4886,0.4888,0.4889,0.4944,0,0.5046,0.5059,0.5025,0.5046,0.5047,0.5003,0.5011,0.4995,0.4975,0.4973,0.4951,0.495,0.4917,0.4912,0.4921,0.4898,0.4925,0.4894,0.4892,0.4892,0.4897,0.4981,0.5002,0.5055,0.4951,0.4952,0.4953,0,0.5116,0.5105,0.5126,0.5097,0.5096,0.5104,0.5091,0.509,0.5072,0.5056,0.5048,0.5018,0.5025,0.499,0.4999,0.4979,0.4976,0.4965,0.4966,0.4964,0.4925,0.498,0.5071,0.5079,0.4963,0.4962,0.4961,0,0.5189,0.518,0.5191,0.5184,0.515,0.5157,0.5143,0.5123,0.5118,0.5108,0.5105,0.5095,0.509,0.5084,0.5052,0.503,0.5065,0.5028,0.5052,0.5053,0.5061,0.5061,0.5152,0.5061,0.5061,0.5061,0.5061,0,0.5257,0.5271,0.5223,0.523,0.5245,0.5207,0.5223,0.5205,0.5187,0.519,0.5151,0.5155,0.5113,0.5112,0.5088,0.5099,0.5097,0.5085,0.5078,0.5088,0.5089,0.5085,0.508,0.5063,0.5062,0.5062,0.5062,0,0.534,0.5309,0.5318,0.5285,0.5278,0.529,0.5262,0.5267,0.5245,0.5249,0.5248,0.5213,0.521,0.5178,0.5168,0.5151,0.5171,0.5158,0.5178,0.5173,0.5199,0.5197,0.529,0.53,0.5204,0.5205,0.5205,0,0.5385,0.5395,0.5363,0.5362,0.535,0.5349,0.5344,0.5307,0.5304,0.5284,0.5291,0.5285,0.5278,0.5275,0.5249,0.5241,0.5226,0.526,0.5225,0.5234,0.5226,0.5225,0.5226,0.5267,0.5268,0.5269,0.527,0,0.5468,0.5452,0.5446,0.5435,0.5431,0.5421,0.5408,0.541,0.5369,0.5367,0.5363,0.5358,0.5347,0.5341,0.5329,0.5315,0.5286,0.5281,0.5286,0.5296,0.5306,0.53,0.5197,0.5279,0.5278,0.5277,0.5277,0.5276,0.5532,0.5539,0.5518,0.5513,0.5499,0.5489,0.5492,0.547,0.5466,0.5454,0.5432,0.5432,0.5412,0.5392,0.5381,0.538,0.5363,0.5371,0.5372,0.5375,0.538,0.5307,0.5378,0.5378,0.5377,0.5377,0.5377,0,0.5612,0.5596,0.5592,0.5576,0.5572,0.5545,0.553,0.5528,0.5528,0.5512,0.5506,0.5501,0.5496,0.5469,0.546,0.5465,0.5451,0.5463,0.5462,0.5459,0.5396,0.5392,0.5475,0.5475,0.5474,0.5474,0.5474,0.5474,0.5653,0.5662,0.5644,0.5647,0.5631,0.5629,0.5623,0.5613,0.56,0.5596,0.5591,0.5574,0.5554,0.5544,0.5537,0.5529,0.5528,0.5544,0.5532,0.5473,0.5464,0.5455,0.5451,0.5545,0.5545,0.5596,0.5596,0.5597]},{"header":{"parameterUnit":"m.s-1","parameterCategory":1,"la1":30.2991,"la2":30.254,"lo1":-89.0895,"lo2":-89.0444,"dy":0.0017,"dx":0.0017,"nx":28,"ny":28,"refTime":"2025-07-17T09:00:00:Z","depth":0,"parameterNumber":3,"parameterNumberName":"V-component_of_WINDS"},"data":[0,0,0,0,0,0,0,0,0,0,0,0,0,0,0,0,0,0,0,0,0,0,0,0,0,0,0,0,0,0,0,0,0,0,0,0,0,0,0,0,0,0,0,0,0,0,0,0,0,0,0,0,0,0,0,0,0,0,7.7974,7.7976,0,7.8166,7.8168,7.817,7.8208,7.8207,7.8205,7.8204,7.8396,7.8403,7.8409,0,0,0,0,0,0,0,0,0,0,0,0,0,7.7637,7.7643,7.7974,7.7976,7.7979,7.8166,7.8168,7.8171,7.8209,7.8207,7.8205,7.8203,7.8394,7.8402,7.841,0,0,0,0,0,0,0,0,0,0,0,0,0,7.7801,7.7645,7.7973,7.802,7.8026,7.8165,7.8168,7.8172,7.8209,7.8207,7.8205,7.8203,7.8392,7.8401,7.8411,7.8515,0,0,7.8441,7.8445,0,0,0,0,0,0,0,0,7.7792,7.7814,7.8011,7.8017,7.8024,7.8161,7.812,7.8287,7.821,7.814,7.8204,7.8201,7.832,7.8335,7.8376,7.8524,7.8533,7.8441,7.8447,7.8452,7.8454,0,0,0,0,0,0,0,7.7781,7.7806,7.805,7.8014,7.8022,7.8031,7.8052,7.8152,7.8239,7.8145,7.8149,7.8171,7.8323,7.8366,7.8381,7.8536,7.8441,7.845,7.8456,7.846,7.8781,7.8783,0,0,0,0,0,0,7.7761,7.7796,7.8044,7.8056,7.7901,7.8039,7.8062,7.8119,7.8239,7.8255,7.8173,7.8172,7.8351,7.8369,7.8388,7.8518,7.8452,7.8461,7.8466,7.8778,7.8781,7.8784,0,0,0,0,0,0,7.7754,7.7783,7.8036,7.7927,7.796,7.8047,7.8111,7.8124,7.8168,7.8259,7.8275,7.8201,7.835,7.8374,7.8484,7.8526,7.8465,7.8474,7.8775,7.8779,7.8783,7.878,0,0,0,0,0,0,7.7744,7.778,7.7821,7.7928,7.7965,7.813,7.8114,7.813,7.8185,7.8186,7.829,7.8305,7.835,7.8469,7.8494,7.8538,7.8482,7.8772,7.8777,7.8782,7.8777,7.8784,7.8789,0,0,0,0,0,7.7732,7.7812,7.7823,7.7853,7.8019,7.8132,7.8154,7.8204,7.8188,7.823,7.8289,7.8302,7.8518,7.848,7.8508,7.8556,7.8769,7.8775,7.8781,7.8774,7.8782,7.8789,0,0,0,0,0,0,7.7706,7.7826,7.784,7.7957,7.8034,7.8138,7.8192,7.8211,7.8293,7.8291,7.8349,7.8373,7.8479,7.8529,7.8485,7.8664,7.8642,7.8654,7.8627,7.8636,7.8642,7.8627,7.849,0,0,0,0,0,7.7714,7.7797,7.7898,7.7991,7.8029,7.8104,7.8155,7.8188,7.827,7.8302,7.8369,7.8447,7.8533,7.8587,7.8671,7.8785,7.8808,7.8832,7.8838,7.8843,7.8852,7.8916,7.8928,7.8804,7.8804,7.8804,0,0,7.7731,7.7807,7.7856,7.7988,7.8051,7.8135,7.8131,7.822,7.8282,7.8315,7.8424,7.8476,7.8567,7.8679,7.8732,7.8724,7.8892,7.885,7.8853,7.886,7.8924,7.8935,7.8946,7.8808,7.8808,7.8807,0,0,7.7805,7.7871,7.7956,7.8021,7.8118,7.8168,7.8189,7.8291,7.8327,7.8437,7.8464,7.8539,7.8685,7.8749,7.8801,7.8902,7.8916,7.8927,7.8959,7.9021,7.9031,7.904,7.9075,7.9088,7.8936,7.8936,7.8936,0,7.7813,7.7941,7.7997,7.8086,7.8143,7.8179,7.8265,7.8325,7.8444,7.8482,7.8472,7.8657,7.872,7.8849,7.8874,7.8915,7.8939,7.8914,7.9025,7.9035,7.9044,7.9078,7.9092,7.8937,7.8937,7.8937,7.8937,0,7.7947,7.8036,7.8093,7.8209,7.8273,7.8359,7.8428,7.8485,7.8514,7.8564,7.8677,7.8755,7.8855,7.8889,7.8916,7.9022,7.9014,7.9014,7.8993,7.9055,7.9089,7.9103,7.8938,7.8937,7.8937,7.8937,0,0,7.8006,7.8155,7.8174,7.8228,7.8339,7.8409,7.8497,7.8598,7.8646,7.8728,7.8803,7.8927,7.8929,7.8987,7.9023,7.9078,7.9153,7.9071,7.9074,7.9083,7.9274,7.9272,7.9286,7.9164,7.9167,7.9169,7.9266,0,7.8093,7.8253,7.8307,7.844,7.8523,7.856,7.8637,7.8714,7.8764,7.8841,7.8897,7.8984,7.8979,7.9015,7.9071,7.9131,7.9191,7.9125,7.9234,7.9237,7.9208,7.9304,7.9302,7.9389,7.9279,7.9282,7.9283,0,7.8214,7.83,7.8441,7.8544,7.858,7.8649,7.8746,7.882,7.8907,7.894,7.9007,7.9039,7.9133,7.9109,7.9239,7.9192,7.9241,7.9277,7.9282,7.9292,7.9262,7.9316,7.9418,7.9431,7.9304,7.9303,7.9301,0,7.8243,7.8393,7.8498,7.8543,7.8665,7.8712,7.8765,7.8851,7.8908,7.8993,7.9031,7.9125,7.9176,7.9248,7.9304,7.9281,7.9429,7.9409,7.9458,7.9457,7.9486,7.9483,7.9596,7.9519,7.9519,7.9519,7.9518,0,7.8332,7.8417,7.8512,7.8576,7.8673,7.8734,7.8828,7.8883,7.8959,7.9034,7.9072,7.9142,7.9213,7.9292,7.9337,7.9437,7.946,7.9489,7.95,7.9485,7.9481,7.9516,7.951,7.9522,7.9522,7.9521,7.952,0,7.8379,7.8447,7.8563,7.867,7.8699,7.8765,7.8857,7.892,7.8974,7.9068,7.9094,7.9177,7.9272,7.9337,7.9457,7.9488,7.9597,7.9607,7.9568,7.9572,7.9618,7.9612,7.9756,7.9778,7.9687,7.9688,7.9688,0,7.8431,7.8498,7.8613,7.8667,7.8721,7.8806,7.8866,7.893,7.899,7.9096,7.9146,7.9245,7.9326,7.9476,7.9547,7.964,7.9652,7.9696,7.9666,7.9649,7.9651,7.9646,7.9653,7.97,7.97,7.9701,7.9701,0,7.8516,7.8547,7.8632,7.8729,7.8799,7.8878,7.8957,7.8999,7.9076,7.9142,7.924,7.9304,7.9429,7.9526,7.9626,7.968,7.9704,7.9711,7.9727,7.9711,7.9685,7.97,7.9579,7.9706,7.9706,7.9706,7.9705,7.9705,7.8567,7.8628,7.8719,7.8813,7.888,7.8953,7.9019,7.9081,7.9165,7.9272,7.9305,7.9407,7.9495,7.9633,7.9689,7.9769,7.9765,7.9788,7.9794,7.9799,7.9798,7.9674,7.9788,7.9788,7.9788,7.9788,7.9788,0,7.8653,7.8714,7.88,7.8911,7.8984,7.9003,7.9092,7.9152,7.9242,7.9322,7.9402,7.9516,7.9611,7.969,7.9788,7.9837,7.985,7.9861,7.9857,7.9869,7.9797,7.9773,7.9848,7.9848,7.9848,7.9848,7.9848,7.9848,7.8707,7.8811,7.8853,7.8991,7.9052,7.9153,7.9203,7.9271,7.9336,7.9461,7.9541,7.9593,7.9673,7.9777,7.9865,7.9886,7.9919,7.9927,7.995,7.9881,7.9874,7.9867,7.9845,7.9934,7.9934,8.0015,8.0016,8.0017]}]]